Southport, NC

1:13 AM EDT on May 24, 2017 (GMT -0400)
Brunswick County

Weather History for KSUT - April, 2014

Change the Weather History Date:

Sunday, April 27, 2014

  Actual Average (KILM) Record (KILM)
Temperature  
Mean Temperature 68 °F -  
Max Temperature 76 °F 77 °F 94 °F (1990)
Min Temperature 60 °F 53 °F 39 °F (1972)
Cooling Degree Days 3    
Growing Degree Days 18 (Base 50)    
Moisture  
Dew Point 60 °F    
Average Humidity 77    
Maximum Humidity 93    
Minimum Humidity 57    
Precipitation  
Precipitation 0.00 in - - ()
Sea Level Pressure  
Sea Level Pressure 30.00 in    
Wind  
Wind Speed 6 mph (SW)    
Max Wind Speed 12 mph    
Max Gust Speed 16 mph    
Visibility 10 miles    
Events      
Averages and records for this station are not official NWS values.
T = Trace of Precipitation, MM = Missing Value Source: NWS Daily Summary

Daily Weather History Graph

Daily Weather History Graph

Search for Another Location

Airport or City:

Trip Planner

Search our weather history database for the weather conditions in past years. The results will help you decide how hot, cold, wet, or windy it might be!

Date:

Astronomy

Apr. 27, 2014 Rise Set
Actual Time 6:27 AM EDT 7:52 PM EDT
Civil Twilight 6:01 AM EDT 8:19 PM EDT
Nautical Twilight 5:29 AM EDT 8:50 PM EDT
Astronomical Twilight 4:56 AM EDT 9:24 PM EDT
Moon 5:21 AM EDT (4/27) 6:28 PM EDT (4/27)
Length of Visible Light 14h 18m
Length of Day
13h 25m
Waning Crescent, 3% of the Moon is Illuminated
Apr 27
Waning Crescent
Apr 29
New
May 6
First Quarter
May 14
Full
May 21
Last Quarter

Hourly Weather History & Observations

Time (EDT) Temp. Dew Point Humidity Pressure Visibility Wind Dir Wind Speed Gust Speed Precip Events Conditions
12:15 AM 61.9 °F 57.9 °F 87% 30.00 in 10.0 mi SW 4.6 mph - N/A   Clear
12:35 AM 61.9 °F 57.7 °F 86% 30.00 in 10.0 mi SW 4.6 mph - N/A   Clear
12:55 AM 61.9 °F 57.4 °F 85% 30.00 in 10.0 mi SW 5.8 mph - N/A   Clear
1:15 AM 61.9 °F 57.4 °F 85% 30.00 in 10.0 mi SW 4.6 mph - N/A   Clear
1:35 AM 61.2 °F 56.7 °F 85% 30.00 in 10.0 mi WSW 3.5 mph - N/A   Clear
2:15 AM 60.1 °F 55.6 °F 85% 29.98 in 10.0 mi WSW 3.5 mph - N/A   Clear
2:35 AM 60.8 °F 56.3 °F 85% 29.98 in 10.0 mi WSW 4.6 mph - N/A   Clear
2:55 AM 61.0 °F 56.5 °F 85% 29.98 in 10.0 mi WSW 5.8 mph - N/A   Clear
3:15 AM 61.0 °F 56.8 °F 86% 29.98 in 10.0 mi WSW 4.6 mph - N/A   Clear
3:35 AM 60.8 °F 57.4 °F 88% 29.98 in 10.0 mi WSW 4.6 mph - N/A   Clear
3:55 AM 61.5 °F 58.1 °F 89% 29.98 in 10.0 mi WSW 5.8 mph - N/A   Clear
4:15 AM 61.5 °F 58.3 °F 89% 29.98 in 10.0 mi WSW 5.8 mph - N/A   Clear
4:35 AM 61.5 °F 58.6 °F 90% 29.98 in 10.0 mi WSW 4.6 mph - N/A   Clear
4:55 AM 61.0 °F 58.6 °F 92% 29.99 in 10.0 mi WSW 3.5 mph - N/A   Clear
5:15 AM 61.0 °F 58.6 °F 92% 29.99 in 10.0 mi SW 4.6 mph - N/A   Clear
5:35 AM 61.0 °F 59.0 °F 93% 29.99 in 10.0 mi SW 3.5 mph - N/A   Clear
5:55 AM 61.0 °F 59.0 °F 93% 29.99 in 10.0 mi SW 4.6 mph - N/A   Clear
6:15 AM 61.0 °F 58.8 °F 93% 29.99 in 10.0 mi WSW 4.6 mph - N/A   Clear
6:35 AM 61.0 °F 58.8 °F 93% 30.00 in 10.0 mi WSW 3.5 mph - N/A   Clear
6:55 AM 60.8 °F 58.8 °F 93% 30.01 in 10.0 mi WSW 3.5 mph - N/A   Clear
7:15 AM 61.9 °F 59.2 °F 91% 30.01 in 10.0 mi WSW 4.6 mph - N/A   Clear
7:35 AM 63.1 °F 59.5 °F 88% 30.02 in 10.0 mi West 5.8 mph - N/A   Clear
7:55 AM 64.4 °F 59.5 °F 84% 30.03 in 10.0 mi West 5.8 mph - N/A   Clear
8:15 AM 65.5 °F 59.4 °F 81% 30.03 in 10.0 mi West 6.9 mph - N/A   Clear
8:35 AM 66.6 °F 59.4 °F 78% 30.03 in 10.0 mi West 11.5 mph - N/A   Clear
8:55 AM 68.5 °F 59.9 °F 74% 30.03 in 10.0 mi West 6.9 mph - N/A   Clear
9:15 AM 68.9 °F 59.7 °F 72% 30.03 in 10.0 mi WSW 8.1 mph - N/A   Clear
9:35 AM 69.6 °F 59.9 °F 71% 30.03 in 10.0 mi WSW 9.2 mph - N/A   Clear
9:55 AM 70.2 °F 60.1 °F 70% 30.03 in 10.0 mi WSW 8.1 mph - N/A   Clear
10:15 AM 71.1 °F 60.6 °F 69% 30.04 in 10.0 mi SW 8.1 mph - N/A   Clear
10:35 AM 71.6 °F 61.0 °F 69% 30.04 in 10.0 mi SW 10.4 mph - N/A   Clear
10:55 AM 72.3 °F 61.5 °F 69% 30.05 in 10.0 mi SW 11.5 mph - N/A   Clear
11:15 AM 72.5 °F 61.7 °F 69% 30.04 in 10.0 mi SW 10.4 mph - N/A   Clear
11:35 AM 72.9 °F 61.7 °F 68% 30.04 in 10.0 mi SW 10.4 mph - N/A   Clear
11:55 AM 73.2 °F 61.7 °F 67% 30.04 in 10.0 mi SW 11.5 mph - N/A   Clear
12:15 PM 74.3 °F 61.7 °F 65% 30.03 in 10.0 mi SW 11.5 mph - N/A   Clear
12:35 PM 74.8 °F 62.2 °F 65% 30.02 in 10.0 mi SW 9.2 mph - N/A   Clear
12:55 PM 75.6 °F 62.2 °F 63% 30.01 in 10.0 mi SW 11.5 mph - N/A   Clear
1:35 PM 76.1 °F 62.2 °F 62% 30.00 in 10.0 mi SW 9.2 mph - N/A   Clear
1:55 PM 76.3 °F 62.1 °F 61% 30.00 in 10.0 mi SW 8.1 mph - N/A   Clear
2:15 PM 76.3 °F 62.4 °F 62% 29.99 in 10.0 mi SW 9.2 mph - N/A   Clear
2:35 PM 76.5 °F 62.4 °F 62% 29.99 in 10.0 mi SW 9.2 mph - N/A   Clear
2:55 PM 76.3 °F 61.5 °F 60% 29.99 in 10.0 mi SW 6.9 mph - N/A   Clear
3:15 PM 76.3 °F 61.3 °F 60% 29.99 in 10.0 mi SW 10.4 mph - N/A   Clear
3:35 PM 76.5 °F 61.9 °F 61% 29.98 in 10.0 mi SW 9.2 mph - N/A   Clear
3:55 PM 76.1 °F 62.4 °F 62% 29.97 in 10.0 mi SSW 10.4 mph - N/A   Clear
4:15 PM 75.6 °F 62.4 °F 64% 29.96 in 10.0 mi SSW 6.9 mph - N/A   Clear
4:35 PM 75.2 °F 60.6 °F 60% 29.95 in 10.0 mi SW 8.1 mph - N/A   Clear
4:55 PM 74.8 °F 59.0 °F 58% 29.95 in 10.0 mi SSW 9.2 mph - N/A   Clear
5:15 PM 74.3 °F 59.5 °F 60% 29.96 in 10.0 mi SSW 8.1 mph - N/A   Clear
5:35 PM 74.3 °F 57.9 °F 57% 29.96 in 10.0 mi SW 9.2 mph 16.1 mph N/A   Clear
5:55 PM 72.5 °F 58.5 °F 61% 29.96 in 10.0 mi SSW 6.9 mph - N/A   Clear
6:15 PM 71.1 °F 59.0 °F 66% 29.97 in 10.0 mi SW 6.9 mph - N/A   Clear
6:35 PM 70.9 °F 59.2 °F 66% 29.97 in 10.0 mi SSW 5.8 mph - N/A   Clear
6:55 PM 70.0 °F 59.4 °F 69% 29.97 in 10.0 mi SW 6.9 mph - N/A   Clear
7:15 PM 69.1 °F 60.3 °F 73% 29.97 in 10.0 mi SSW 4.6 mph - N/A   Clear
7:35 PM 68.5 °F 60.6 °F 76% 29.98 in 10.0 mi SSW 5.8 mph - N/A   Clear
7:55 PM 67.3 °F 61.0 °F 80% 29.99 in 10.0 mi SW 4.6 mph - N/A   Clear
8:15 PM 66.6 °F 61.7 °F 84% 29.99 in 10.0 mi SW 3.5 mph - N/A   Clear
8:35 PM 66.2 °F 61.7 °F 85% 29.99 in 10.0 mi SSW 3.5 mph - N/A   Clear
8:55 PM 66.2 °F 61.7 °F 85% 29.99 in 10.0 mi Calm Calm - N/A   Clear
9:15 PM 66.2 °F 61.2 °F 84% 29.99 in 10.0 mi Calm Calm - N/A   Clear
9:35 PM 65.3 °F 61.7 °F 88% 30.00 in 10.0 mi Calm Calm - N/A   Clear
9:55 PM 65.5 °F 61.2 °F 86% 29.99 in 10.0 mi SSW 3.5 mph - N/A   Clear
10:15 PM 65.3 °F 61.5 °F 88% 30.00 in 10.0 mi Calm Calm - N/A   Clear
10:35 PM 64.4 °F 61.7 °F 91% 30.00 in 10.0 mi SSE 3.5 mph - N/A   Clear
10:55 PM 65.3 °F 62.6 °F 91% 30.00 in 10.0 mi Calm Calm - N/A   Clear
11:15 PM 65.3 °F 62.6 °F 91% 30.00 in 10.0 mi Calm Calm - N/A   Clear
11:35 PM 65.3 °F 62.6 °F 91% 30.00 in 10.0 mi Calm Calm - N/A   Clear
11:55 PM 65.3 °F 62.8 °F 92% 30.00 in 10.0 mi West 3.5 mph - N/A   Clear